Location: ??
(35.4627°N, 139.3695°E)
Time: 04:16:47
(UTC+00:00)

BREEZE-M DEB (TANK) - Pass Details

Date: 25 November 2020
Orbit: 410 x 14910 km, 45.9° (Epoch: 20 January)

Event Time Altitude Azimuth Distance (km) Brightness Sun altitude
Exits shadow 20:14:10 21° 335° (NNW) 1,008 3.8 -15.0°
Maximum altitude 20:14:32 21° 347° (NNW) 1,006 3.9 -15.0°
Drops below altitude 10° 20:17:14 10° 42° (NE) 1,811 5.8 -14.4°
Sets 20:20:37 0° 59° (ENE) 3,389 7.5 -13.8°
